Weather reports worldwide

Advertisment
Neuburg/Donau, Germany (10853): temperature & dewpoint: 24.09.2020 16:00:00 - 30.09.2020 16:00:00 (CEST)Neuburg/Donau, Germany (10853): wind speed & gusts: 24.09.2020 16:00:00 - 30.09.2020 16:00:00 (CEST)Neuburg/Donau, Germany (10853): wind direction: 24.09.2020 16:00:00 - 30.09.2020 16:00:00 (CEST)Neuburg/Donau, Germany (10853): reduced air pressure: 24.09.2020 16:00:00 - 30.09.2020 16:00:00 (CEST)Neuburg/Donau, Germany (10853): visibility: 24.09.2020 16:00:00 - 30.09.2020 16:00:00 (CEST)
Date & Time tt [°C] td [°C] ff [km/h] ff [kn] fx [km/h] fx [kn] dd ppp [hPa] vv [km]
30.09.2020 16:00:00 15,3 9,8 4 2 - - N 1015,0 30
30.09.2020 15:00:00 15,1 9,5 7 4 - - SE 1015,4 25
30.09.2020 14:00:00 15,1 10,1 4 2 - - NW 1016,2 22
30.09.2020 13:00:00 14,8 9,8 7 4 - - W 1016,8 20
30.09.2020 12:00:00 13,9 9,7 4 2 - - W 1017,3 18
30.09.2020 11:00:00 13,1 10,5 4 2 - - NNW 1017,8 13
30.09.2020 10:00:00 11,7 10,0 4 2 - - N 1018,3 8
30.09.2020 09:00:00 10,9 10,1 4 2 - - S 1018,6 8
30.09.2020 08:00:00 10,1 9,7 4 2 - - E 1018,7 8
30.09.2020 07:00:00 10,0 9,4 0 0 - - N 1018,3 8
30.09.2020 06:00:00 10,9 10,2 4 2 - - SW 1018,2 8
30.09.2020 05:00:00 10,9 10,1 4 2 - - WSW 1018,6 8
30.09.2020 04:00:00 10,8 10,2 4 2 - - SE 1019,2 8
30.09.2020 03:00:00 10,8 10,2 4 2 - - SSE 1019,5 8
30.09.2020 02:00:00 11,2 10,3 4 2 - - W 1019,5 8
30.09.2020 01:00:00 11,1 10,1 4 2 - - SSW 1019,8 8
30.09.2020 00:00:00 11,3 9,9 4 2 - - SSW 1019,8 8
29.09.2020 23:00:00 11,3 10,0 7 4 - - W 1020,0 8
29.09.2020 22:00:00 11,3 10,4 11 6 - - W 1020,0 7
29.09.2020 21:00:00 11,5 10,5 11 6 - - WSW 1019,9 7
29.09.2020 20:00:00 11,7 10,4 11 6 - - W 1019,8 7
29.09.2020 19:00:00 11,8 10,4 11 6 - - WSW 1019,2 7
29.09.2020 18:00:00 11,8 10,9 11 6 - - WSW 1019,0 5
29.09.2020 17:00:00 12,0 10,9 11 6 - - WSW 1018,6 5
29.09.2020 16:00:00 13,3 9,8 15 8 - - W 1018,0 7
29.09.2020 15:00:00 13,5 9,6 14 8 - - WSW 1018,0 35
29.09.2020 14:00:00 13,3 9,4 11 6 - - W 1018,1 35
29.09.2020 13:00:00 13,5 8,8 11 6 - - W 1018,0 30
29.09.2020 12:00:00 12,1 9,1 7 4 - - WSW 1018,2 30
29.09.2020 11:00:00 11,6 9,1 4 2 - - SW 1018,2 15
29.09.2020 10:00:00 8,7 8,1 7 4 - - W 1018,4 2,0
29.09.2020 09:00:00 7,6 6,8 4 2 - - N 1018,3 15
29.09.2020 08:00:00 4,6 4,3 4 2 - - SW 1018,1 20
29.09.2020 07:00:00 5,1 4,7 4 2 - - W 1017,6 20
29.09.2020 06:00:00 6,1 5,7 4 2 - - N 1017,1 20
29.09.2020 05:00:00 6,0 5,5 4 2 - - N 1016,8 15
29.09.2020 04:00:00 7,2 6,9 7 4 - - SSW 1016,3 20
29.09.2020 03:00:00 6,6 6,1 4 2 - - WSW 1016,3 20
29.09.2020 02:00:00 7,7 6,9 4 2 - - N 1016,1 20
29.09.2020 01:00:00 8,5 7,4 4 2 - - NE 1016,0 25
29.09.2020 00:00:00 8,4 7,1 0 0 - - N 1016,1 25
28.09.2020 23:00:00 - - - - - - - - -
28.09.2020 22:00:00 8,9 6,7 4 2 - - SSE 1015,3 30
28.09.2020 21:00:00 9,7 6,9 7 4 - - SE 1015,0 30
28.09.2020 20:00:00 10,4 7,2 7 4 - - SE 1014,0 30
28.09.2020 19:00:00 11,4 7,5 7 4 - - ESE 1013,1 30
28.09.2020 18:00:00 11,6 7,6 7 4 - - S 1012,4 30
28.09.2020 17:00:00 12,1 6,5 7 4 - - SSE 1012,1 30
28.09.2020 16:00:00 11,8 7,2 7 4 - - N 1012,1 40
28.09.2020 15:00:00 10,9 6,8 7 4 - - ESE 1012,0 40
28.09.2020 14:00:00 10,7 6,8 4 2 - - N 1012,0 30
28.09.2020 13:00:00 9,8 6,2 7 4 - - SE 1012,0 30
28.09.2020 12:00:00 9,1 6,0 7 4 - - E 1011,9 30
28.09.2020 11:00:00 9,1 5,8 7 4 - - NE 1011,5 30
28.09.2020 10:00:00 9,1 6,4 4 2 - - N 1011,1 18
28.09.2020 09:00:00 4,8 4,6 0 0 - - N 1011,5 5
28.09.2020 08:00:00 2,0 1,8 4 2 - - N 1011,4 0,2
28.09.2020 07:00:00 3,1 2,8 4 2 - - W 1010,1 1,6
28.09.2020 06:00:00 2,0 1,8 4 2 - - W 1010,5 40
28.09.2020 05:00:00 1,6 1,4 4 2 - - N 1010,9 50
28.09.2020 04:00:00 1,6 1,3 4 2 - - SSE 1010,7 50
28.09.2020 03:00:00 2,9 2,6 4 2 - - S 1010,3 50
28.09.2020 02:00:00 4,6 4,1 4 2 - - N 1010,0 50
28.09.2020 01:00:00 5,3 4,6 4 2 - - NNW 1009,9 60
28.09.2020 00:00:00 5,7 4,7 7 4 - - NNW 1009,4 60
27.09.2020 23:00:00 6,6 5,7 4 2 - - NNW 1009,5 60
27.09.2020 22:00:00 7,2 6,1 4 2 - - NNE 1009,3 70
27.09.2020 21:00:00 8,3 6,3 7 4 - - N 1008,3 70
27.09.2020 20:00:00 10,1 5,7 0 0 - - N 1007,4 70
27.09.2020 19:00:00 13,1 3,8 7 4 - - E 1006,2 70
27.09.2020 18:00:00 15,1 3,0 4 2 - - SSE 1005,2 75
27.09.2020 17:00:00 14,6 3,7 7 4 - - SSE 1005,1 75
27.09.2020 16:00:00 15,4 3,2 7 4 - - S 1004,8 75
27.09.2020 15:00:00 14,9 3,2 7 4 - - W 1004,7 75
27.09.2020 14:00:00 13,3 3,9 4 2 - - SSE 1005,1 75
27.09.2020 13:00:00 13,4 4,6 14 8 - - SSW 1004,9 75
27.09.2020 12:00:00 11,5 4,4 14 8 - - W 1004,9 75
27.09.2020 11:00:00 10,3 4,3 18 10 - - WSW 1004,7 75
27.09.2020 10:00:00 9,7 4,7 18 10 - - SW 1003,9 70
27.09.2020 09:00:00 8,7 4,8 11 6 - - SSW 1003,4 60
27.09.2020 08:00:00 6,8 4,2 11 6 - - SSW 1003,2 50
27.09.2020 07:00:00 7,5 4,4 14 8 - - SW 1002,8 50
27.09.2020 06:00:00 7,3 4,7 14 8 - - SSW 1003,1 50
27.09.2020 05:00:00 7,4 4,8 14 8 - - SSW 1002,7 40
27.09.2020 04:00:00 7,6 4,9 14 8 - - SW 1002,4 30
27.09.2020 03:00:00 7,5 5,0 18 10 - - SW 1002,2 30
27.09.2020 02:00:00 7,2 5,1 22 12 - - SW 1002,0 25
27.09.2020 01:00:00 7,1 5,0 25 14 - - SW 1001,8 15
27.09.2020 00:00:00 7,2 5,2 22 12 - - SW 1001,6 15
26.09.2020 23:00:00 7,2 4,8 22 12 - - SW 1001,2 15
26.09.2020 22:00:00 7,4 5,0 18 10 - - SW 1000,8 15
26.09.2020 21:00:00 7,5 5,1 22 12 - - SW 1000,9 15
26.09.2020 20:00:00 7,6 5,5 18 10 - - SW 1000,8 15
26.09.2020 19:00:00 7,7 5,5 18 10 - - SW 1000,6 15
26.09.2020 18:00:00 8,1 4,9 22 12 - - WSW 1000,2 20
26.09.2020 17:00:00 7,9 5,5 25 14 - - WSW 999,9 40
26.09.2020 16:00:00 7,6 5,9 22 12 - - WSW 999,9 8
26.09.2020 15:00:00 7,5 5,5 22 12 - - WSW 1000,0 8
26.09.2020 14:00:00 7,6 5,7 25 14 - - WSW 1000,4 8
26.09.2020 13:00:00 7,8 5,6 18 10 - - WSW 1000,6 8
26.09.2020 12:00:00 7,8 5,4 36 19 47 25 WSW 1000,5 9
26.09.2020 11:00:00 8,3 5,6 29 16 - - WSW 1000,2 12
26.09.2020 10:00:00 7,9 5,4 22 12 - - WSW 1000,3 20
26.09.2020 09:00:00 7,6 5,7 18 10 - - WSW 1000,3 30
26.09.2020 08:00:00 7,4 6,1 18 10 - - W 1000,4 10
26.09.2020 07:00:00 7,5 6,4 16 9 - - WSW 1000,6 6
26.09.2020 06:00:00 7,8 6,3 18 10 - - W 1000,4 25
26.09.2020 05:00:00 8,0 6,2 22 12 - - WSW 1000,6 40
26.09.2020 04:00:00 8,4 6,5 18 10 - - W 1000,6 40
26.09.2020 03:00:00 8,2 6,6 18 10 - - W 1000,3 35
26.09.2020 02:00:00 7,8 6,6 14 8 - - WSW 1000,9 25
26.09.2020 01:00:00 7,3 6,0 7 4 - - WSW 1001,3 35
26.09.2020 00:00:00 7,0 5,5 7 4 - - WSW 1001,6 40
25.09.2020 23:00:00 6,8 5,0 7 4 - - SW 1001,5 40
25.09.2020 22:00:00 6,6 5,0 11 6 - - SW 1002,2 30
25.09.2020 21:00:00 6,7 5,0 11 6 - - SSW 1002,3 35
25.09.2020 20:00:00 6,9 5,1 11 6 - - SSW 1002,5 30
25.09.2020 19:00:00 7,8 5,8 14 8 - - SSW 1002,1 40
25.09.2020 18:00:00 8,3 6,2 7 4 - - WSW 1001,9 12
25.09.2020 17:00:00 8,5 7,2 7 4 - - W 1002,1 8
25.09.2020 16:00:00 8,3 5,0 22 12 47 25 SW 1002,3 7
25.09.2020 15:00:00 10,6 7,1 14 8 - - W 1001,5 40
25.09.2020 14:00:00 10,3 8,5 18 10 - - W 1001,6 30
25.09.2020 13:00:00 10,9 7,1 14 8 - - WSW 1002,1 40
25.09.2020 12:00:00 10,3 8,1 11 6 - - SW 1002,6 10
25.09.2020 11:00:00 10,1 7,5 11 6 - - WSW 1002,9 20
25.09.2020 10:00:00 10,4 7,6 7 4 - - WSW 1002,3 18
25.09.2020 09:00:00 10,3 7,8 14 8 - - WNW 1001,3 15
25.09.2020 08:00:00 12,3 10,9 14 8 - - W 1000,6 5
25.09.2020 07:00:00 12,4 11,6 7 4 - - S 1000,2 35
25.09.2020 06:00:00 13,0 11,8 4 2 - - SW 1000,8 40
25.09.2020 05:00:00 13,1 12,1 11 6 - - SSW 1001,2 15
25.09.2020 04:00:00 13,2 12,2 11 6 - - SSW 1001,7 15
25.09.2020 03:00:00 13,7 12,4 11 6 - - SSW 1002,1 15
25.09.2020 02:00:00 13,4 12,7 7 4 - - SSW 1002,9 15
25.09.2020 01:00:00 13,6 12,6 7 4 - - SW 1003,4 15
25.09.2020 00:00:00 13,5 12,7 18 10 - - WNW 1003,6 15
24.09.2020 23:00:00 16,1 14,2 11 6 - - W 1002,9 20
24.09.2020 22:00:00 16,4 13,7 7 4 - - ENE 1002,4 30
24.09.2020 21:00:00 17,3 13,7 7 4 - - ENE 1003,2 30
24.09.2020 20:00:00 18,4 13,2 7 4 - - E 1003,8 30
24.09.2020 19:00:00 18,3 13,1 7 4 - - ENE 1004,9 50
24.09.2020 18:00:00 20,7 12,0 11 6 - - E 1005,2 55
24.09.2020 17:00:00 21,3 10,5 11 6 - - SSE 1005,8 55
24.09.2020 16:00:00 20,8 11,5 7 4 - - SE 1006,6 50

tt = temperature
td = dewpoint
ff = wind speed
fx = gusts
dd = wind direction
ppp = reduced air pressure
vv = visibility

Next stations